Theta_e
315 316 318 321 320 321 324 323 330 330 326 322 320 324 321 321 323 320 321 322 322 319 320 321 320 321 323 326 328 328 327 330 332 335 343 338 336 340 339 339 337 334 332 332 332 332 333 334 334 334 334 334 334 333 333 334 334 334 334 333 333 331 330 326 321 319 318 317 316 315 315 314 312 310 312 312 313 319 322 323 327 329 330 330 318 305 307 307 308 308 308 308 309 310 311 312 313
314 316 319 320 320 322 324 324 329 328 326 322 318 322 320 324 327 322 324 323 321 319 320 320 320 322 323 326 327 330 334 331 331 336 340 337 338 340 339 339 336 334 332 332 333 333 333 334 334 334 334 333 334 333 333 334 334 334 333 333 332 331 330 326 321 319 319 318 317 316 315 315 311 309 311 312 320 325 324 326 329 330 331 332 318 305 308 307 308 308 308 308 309 310 311 312 312
314 317 320 321 323 323 325 326 327 326 326 321 316 320 321 325 325 321 322 319 320 319 320 320 320 323 322 326 328 334 337 331 330 336 339 338 339 339 340 338 336 334 333 332 332 333 333 333 334 333 333 333 333 333 334 334 333 333 333 333 332 331 330 325 321 319 320 319 317 316 316 315 312 310 309 313 322 324 324 327 329 330 331 330 317 305 308 307 308 307 307 308 309 310 311 312 313
315 319 323 323 326 326 328 328 329 329 322 320 316 318 323 324 323 320 320 319 320 320 321 322 321 322 322 327 330 333 335 332 332 335 337 338 338 339 339 336 335 334 333 332 331 332 332 332 332 332 333 333 333 334 334 333 333 333 332 332 331 330 329 325 321 320 320 320 318 316 316 315 314 309 309 315 319 321 324 324 323 327 327 324 313 306 308 307 307 307 307 308 309 311 311 312 313
316 320 323 323 328 326 328 328 330 329 319 322 321 319 324 322 321 319 319 320 320 321 322 322 320 321 324 327 329 332 333 333 333 334 336 338 336 337 338 336 335 334 334 333 333 332 331 331 330 330 332 332 333 333 333 332 332 332 332 331 330 329 328 325 322 320 320 321 319 316 316 316 315 310 309 313 315 322 327 324 322 323 322 318 310 306 308 306 307 307 307 308 310 312 313 314 314
318 320 322 321 325 323 327 327 322 322 316 324 323 319 323 319 319 318 318 321 320 321 321 321 321 321 326 328 329 331 333 333 333 334 334 336 335 335 338 337 336 336 334 335 335 333 331 330 328 328 331 331 332 332 332 332 331 331 331 331 330 329 327 325 323 321 321 321 320 317 317 317 316 310 308 313 314 320 326 327 327 326 323 320 312 306 306 306 307 306 307 308 309 312 314 316 316
320 322 322 322 325 322 331 328 319 321 318 320 321 320 321 317 318 318 318 320 319 321 319 319 321 323 325 327 329 331 334 333 332 332 332 335 335 334 337 338 338 336 335 336 336 334 330 330 328 326 328 330 330 330 331 331 330 329 330 331 330 330 328 325 323 322 320 321 320 318 318 317 317 311 307 313 316 317 321 325 326 326 325 320 311 306 306 306 306 306 307 307 309 312 315 316 317
322 323 323 325 329 327 330 326 321 324 320 317 319 320 319 318 318 318 319 319 319 319 318 319 320 322 323 325 329 332 335 334 330 329 331 334 334 334 336 338 338 336 336 337 336 334 331 330 329 325 326 327 327 328 329 329 328 328 329 330 330 330 329 326 323 322 320 321 320 318 319 318 318 313 308 309 312 313 317 321 323 323 320 313 307 305 306 306 306 307 306 306 307 310 313 315 317
322 324 323 323 328 329 326 321 320 321 320 319 319 320 319 319 318 318 318 317 318 317 318 319 318 321 323 326 329 330 334 334 330 329 330 333 334 334 336 338 337 336 337 338 337 335 333 331 329 325 324 324 324 325 327 328 326 326 327 329 329 329 329 326 324 322 321 321 320 319 319 319 319 315 309 307 307 310 314 318 320 319 313 308 306 306 306 306 306 305 305 305 306 309 311 313 315
322 323 322 326 329 328 323 320 321 319 318 319 318 320 320 320 319 318 318 318 318 318 319 318 318 320 323 327 328 328 329 330 330 331 330 332 334 334 336 338 336 337 337 338 337 336 334 332 329 325 324 324 324 324 326 326 326 325 326 328 328 329 329 326 324 323 322 322 320 319 319 319 320 316 310 307 306 306 309 312 313 311 308 306 306 306 306 306 305 304 305 305 306 308 310 313 315
322 321 321 329 329 323 321 321 321 319 318 318 318 319 319 320 319 317 317 318 318 319 319 317 318 320 323 326 327 325 324 324 326 328 328 332 334 334 336 337 336 337 336 337 337 336 335 332 329 325 324 324 324 325 325 325 325 325 326 327 328 329 330 327 325 323 323 324 321 319 320 320 320 318 312 309 307 305 305 306 307 307 306 306 306 306 305 305 305 305 306 308 309 309 311 313 314
324 324 324 325 326 322 321 323 321 320 319 319 318 318 319 319 318 317 317 319 320 319 318 318 318 319 323 325 326 326 323 321 321 322 325 332 334 333 337 337 336 336 337 337 337 336 335 333 330 326 324 325 326 327 326 326 325 325 326 327 329 329 330 329 326 323 323 324 323 319 319 320 320 320 315 310 309 307 305 305 305 305 305 305 305 305 305 305 306 308 310 311 311 311 313 314 315
323 325 327 325 329 326 322 323 321 321 319 319 318 318 319 318 319 317 317 318 318 319 317 319 318 319 323 324 327 327 323 321 319 319 325 332 333 334 336 337 335 335 336 337 337 336 335 334 332 329 326 325 327 328 328 327 326 326 326 328 330 329 330 330 326 324 323 324 325 321 319 319 320 321 318 313 311 310 308 307 306 305 305 305 305 305 305 307 310 312 314 314 314 314 315 316 316
322 324 327 328 332 326 324 324 321 323 319 319 318 317 319 317 318 317 317 318 317 318 317 318 318 320 324 325 327 326 324 323 319 318 326 332 332 333 334 336 336 334 335 336 337 336 336 335 334 332 329 327 326 328 329 329 328 328 327 328 329 329 330 330 327 325 324 325 325 323 319 318 320 321 320 317 314 313 312 310 309 308 308 307 307 308 309 312 314 315 316 316 316 316 317 317 318
321 321 327 328 329 325 325 323 322 326 319 318 319 317 319 317 317 317 317 319 318 318 317 317 317 319 322 324 326 323 323 324 320 320 326 331 332 332 332 335 336 334 334 335 336 336 336 336 335 334 332 330 328 328 329 330 330 330 328 328 328 328 329 329 328 326 324 324 324 324 321 318 319 320 321 320 318 316 315 314 313 313 312 312 312 312 313 315 316 317 317 317 317 318 318 318 319
319 322 329 326 326 324 322 322 323 325 318 317 318 317 318 316 317 317 317 318 318 318 317 317 316 318 320 321 321 318 319 321 321 319 321 327 330 330 331 333 335 334 333 334 335 335 336 336 336 335 334 332 331 329 329 330 331 331 330 329 328 327 328 328 328 327 325 324 324 324 323 320 319 319 321 321 321 319 318 318 316 316 316 315 315 315 316 316 317 318 318 318 318 318 319 319 319
316 325 332 325 326 323 318 322 325 324 319 317 317 317 318 316 316 316 317 317 318 317 317 317 315 318 319 319 318 317 319 319 319 317 317 321 326 329 330 331 333 334 333 333 334 334 335 335 336 335 334 333 332 331 330 331 332 332 331 330 328 327 327 328 328 328 326 325 325 324 324 323 320 319 320 322 322 321 320 319 319 318 318 318 318 317 317 318 318 318 318 318 319 319 319 320 319
318 328 330 325 328 322 317 321 321 321 319 316 316 317 317 317 316 316 317 316 317 317 316 317 316 317 317 316 318 318 319 318 316 315 315 316 320 324 327 329 329 330 332 332 332 333 334 334 335 334 334 334 333 333 332 332 333 333 333 331 330 328 327 327 328 328 326 326 325 325 325 324 323 320 320 322 323 322 321 320 320 320 319 319 319 319 318 318 318 318 319 319 319 320 320 320 320
320 327 327 328 328 317 315 318 316 319 318 316 316 316 316 317 316 315 316 316 316 317 317 317 316 316 316 316 317 317 319 318 315 314 314 314 315 317 320 324 325 326 326 327 328 331 333 333 333 333 333 333 332 333 334 334 334 334 334 333 332 330 328 327 327 328 327 327 326 326 325 325 326 324 320 321 322 323 323 322 320 320 320 320 320 320 319 318 319 319 319 319 319 320 320 320 320
319 326 328 325 321 316 316 316 316 318 317 316 316 316 316 316 315 315 316 315 315 316 317 316 316 316 315 316 316 316 316 316 315 314 313 313 314 313 314 317 320 321 321 322 323 326 330 331 331 332 333 333 332 333 334 335 335 334 334 334 333 332 330 328 327 327 328 327 327 327 327 326 327 327 324 321 321 323 324 323 322 321 320 320 320 320 320 319 319 319 319 319 319 320 320 320 320
317 325 329 320 316 319 317 315 316 316 316 317 316 316 316 316 315 315 315 315 315 315 316 316 316 315 315 315 315 315 315 315 315 314 314 314 314 314 314 314 315 317 318 320 320 323 326 328 328 330 332 333 332 333 334 335 335 335 334 334 334 334 333 331 328 328 328 328 329 329 329 328 327 329 328 325 322 322 323 324 324 323 321 321 320 321 321 320 320 319 319 319 320 320 320 320 320
317 318 320 316 316 320 317 315 317 316 317 317 315 316 316 316 316 316 315 317 317 315 316 316 316 316 316 315 315 315 315 314 315 314 315 314 314 314 314 314 315 315 316 318 317 319 322 325 327 328 330 332 333 332 332 334 335 335 335 334 334 335 335 333 331 329 329 330 330 330 329 329 329 329 329 328 326 323 322 323 324 324 323 322 321 321 321 321 321 320 320 319 320 320 320 321 320
318 315 315 316 317 318 316 316 316 317 317 316 316 316 316 316 316 317 315 316 318 317 317 317 317 317 317 316 315 315 315 315 315 315 315 315 315 315 315 314 314 314 315 315 315 316 318 320 323 325 327 330 332 332 332 334 334 334 335 334 334 334 335 334 333 331 331 331 331 331 330 329 329 330 329 329 328 326 324 322 323 324 324 323 322 321 321 322 321 320 320 319 320 320 321 321 320
318 317 315 315 316 316 316 316 316 316 316 316 316 316 316 316 316 316 316 316 317 318 317 317 317 317 317 317 316 316 316 316 315 315 315 315 315 315 315 315 314 314 314 314 315 315 315 315 318 321 324 326 329 330 331 332 333 334 335 335 334 334 334 334 334 333 332 332 332 331 331 330 329 330 330 330 329 328 326 324 323 324 324 324 323 322 322 322 322 320 320 320 320 320 321 321 320
316 317 315 315 315 315 315 315 315 316 316 316 316 316 316 317 316 316 316 317 316 317 317 316 317 317 317 317 316 316 316 316 315 315 315 315 315 315 315 315 314 314 314 314 314 315 314 314 315 317 319 322 325 326 328 329 330 332 334 335 335 334 334 334 333 333 333 333 333 332 331 331 330 329 330 331 330 329 328 326 324 324 324 324 324 324 322 322 322 321 320 320 320 320 321 321 320
315 316 315 315 315 315 315 314 315 315 316 316 316 316 316 316 317 317 317 317 316 316 316 317 317 317 317 316 316 316 316 316 315 315 315 315 315 315 315 315 315 315 315 315 314 315 315 314 314 314 316 318 320 323 325 326 327 329 331 332 332 332 332 333 333 332 332 333 333 333 332 331 331 330 330 331 331 330 329 328 327 325 324 324 324 324 323 322 323 322 321 320 321 321 321 321 320
316 316 316 315 315 315 315 315 315 315 315 315 317 317 316 316 316 318 317 316 317 317 317 316 317 316 316 316 316 316 316 316 316 315 315 315 315 315 315 315 315 315 315 315 315 315 315 314 314 314 314 316 318 320 322 324 325 326 328 329 330 331 331 332 333 332 332 333 333 332 332 332 332 331 331 331 331 330 330 329 328 327 325 325 324 324 323 323 323 323 322 321 321 322 321 320 319
316 316 316 315 315 315 315 315 315 315 316 315 316 315 315 315 316 318 317 317 317 316 317 316 316 317 316 316 316 316 316 316 316 316 315 315 316 315 315 315 315 315 315 315 315 315 315 315 315 314 314 315 316 317 319 321 323 324 326 328 327 328 330 331 331 332 332 332 332 332 332 333 332 331 331 331 331 330 330 329 329 328 326 325 325 324 324 323 323 323 322 321 321 322 321 320 318
316 317 318 316 315 317 315 315 315 315 317 316 315 315 316 317 317 318 316 316 318 316 317 317 316 317 316 316 316 316 316 316 315 315 316 316 316 316 316 316 315 315 315 315 315 315 315 315 315 315 315 315 314 315 316 318 320 321 323 324 321 322 327 330 330 331 331 332 332 332 332 333 333 332 331 331 331 330 330 330 329 329 328 326 325 324 324 324 323 323 322 321 321 321 322 320 317
317 316 319 318 316 319 317 314 315 315 316 316 315 315 321 321 316 316 316 316 317 317 316 317 317 317 316 316 316 316 316 316 316 316 316 316 316 316 316 316 316 315 315 315 315 315 315 315 315 315 315 314 314 314 315 316 318 319 320 319 317 318 322 326 328 329 330 331 332 331 332 332 333 332 331 331 331 331 330 330 329 329 329 328 326 325 324 325 324 324 322 321 321 321 321 320 318
318 315 320 323 319 321 319 314 315 316 316 316 315 316 322 321 315 316 317 316 317 317 316 317 317 316 316 316 316 316 316 316 316 316 316 317 317 317 317 316 316 316 315 315 315 315 315 315 315 314 314 314 314 314 314 314 316 317 318 317 316 318 319 322 324 326 328 330 331 329 329 331 333 332 331 331 331 330 330 330 329 329 329 328 327 326 325 325 324 324 323 321 320 321 321 320 318
319 317 322 323 320 322 320 314 315 317 316 315 316 317 321 320 315 316 317 316 317 316 317 316 317 317 316 317 317 317 317 317 317 317 317 317 317 317 317 317 317 316 316 316 315 315 315 315 315 314 314 314 314 314 314 314 314 315 317 317 317 319 320 319 320 323 324 327 327 326 327 332 333 332 331 331 331 330 330 330 330 330 329 329 328 327 326 325 324 323 323 322 321 322 321 320 319
321 320 323 323 320 321 320 316 314 316 317 315 315 317 321 319 315 317 317 317 317 317 317 317 316 317 317 317 317 317 317 318 317 317 317 317 318 318 318 317 317 317 316 316 315 315 315 315 315 315 314 314 314 314 313 314 314 315 316 317 318 319 320 320 319 320 321 322 323 323 330 335 334 333 332 331 331 330 330 330 331 331 329 328 328 327 326 325 324 324 323 322 321 321 321 321 319
322 318 320 324 322 320 320 319 315 314 317 317 316 316 320 319 314 315 317 317 317 317 317 317 317 317 317 318 318 318 318 318 318 318 318 318 317 317 317 318 317 317 316 316 316 315 316 315 315 315 315 314 314 314 314 314 314 314 315 316 318 319 319 319 319 319 319 319 319 323 331 336 335 335 333 332 330 328 330 331 330 330 329 329 328 326 326 325 325 324 324 323 322 321 321 321 319
326 320 319 323 320 319 321 320 317 316 317 317 318 317 319 320 315 314 315 316 316 317 317 317 317 317 317 318 317 318 318 318 317 317 317 316 316 316 316 317 317 318 317 316 316 316 316 316 315 315 315 314 314 314 314 314 314 314 314 314 315 317 317 317 316 316 316 316 316 319 327 333 334 334 333 333 328 324 328 331 330 329 329 329 328 326 326 325 324 323 324 324 322 319 319 320 318
327 326 324 323 319 317 318 317 315 315 317 317 318 318 318 319 317 314 315 316 315 316 317 317 317 317 317 317 317 318 318 318 317 316 317 316 316 316 316 316 317 317 317 317 316 316 316 316 316 316 315 314 314 314 314 313 314 313 313 313 314 314 314 315 314 314 314 314 314 315 321 327 331 333 333 332 327 324 325 328 329 330 330 330 329 327 326 326 325 323 323 323 322 319 318 318 317
321 324 323 321 320 317 317 318 314 312 315 319 319 318 317 317 316 313 313 315 313 313 315 316 317 317 317 318 317 318 318 317 317 317 317 317 317 317 317 317 317 317 317 317 317 317 317 316 316 316 315 315 314 314 314 313 313 313 313 313 313 313 313 313 313 314 313 313 313 313 315 321 325 329 332 330 327 328 329 326 327 329 329 329 328 327 327 326 324 322 323 322 322 321 319 317 316
321 322 322 322 323 319 316 317 316 312 314 319 320 317 316 316 314 312 312 313 313 313 314 315 316 317 317 317 317 317 317 317 317 317 317 317 317 317 317 317 317 317 317 317 317 317 317 316 316 316 316 315 315 315 314 314 314 313 313 313 313 313 313 313 313 313 314 313 313 313 313 316 319 322 326 328 327 329 330 328 328 327 326 325 327 327 326 325 324 322 322 322 320 320 319 318 316
324 323 323 324 323 318 316 318 318 315 315 320 321 318 316 315 314 312 310 312 314 314 315 315 316 316 316 317 317 317 317 317 317 317 317 317 317 317 317 317 317 317 317 317 317 317 317 316 316 316 316 316 316 315 315 314 314 313 313 313 313 313 312 312 313 313 314 314 313 312 312 313 314 315 319 325 327 327 328 327 327 325 323 322 325 328 325 325 325 323 323 323 320 318 317 318 317
325 324 323 324 323 319 318 318 317 316 315 318 320 319 317 315 315 316 312 311 314 314 314 315 315 315 316 316 316 316 316 316 317 317 317 317 317 317 317 318 317 317 317 317 317 316 316 317 316 316 316 316 316 316 315 314 314 313 313 313 312 312 312 312 312 312 313 313 313 312 311 311 311 311 313 318 322 322 323 322 322 323 323 323 326 328 326 325 325 324 323 323 322 319 317 317 316
324 326 325 326 323 319 318 318 318 319 319 319 319 319 323 324 322 323 320 314 313 314 314 314 315 315 316 316 315 316 316 316 316 316 318 318 318 318 317 318 318 318 318 317 317 316 316 316 316 316 316 316 316 316 315 314 314 314 313 313 313 312 313 312 312 312 312 312 312 312 312 311 311 311 311 315 319 322 323 322 322 324 325 326 328 328 326 325 324 324 323 322 322 321 319 318 314
318 322 323 323 322 321 322 322 319 320 322 320 317 317 327 332 325 323 322 317 315 315 313 315 318 317 316 317 316 316 316 316 317 317 318 318 318 318 318 318 318 318 318 318 317 317 316 316 316 315 315 315 315 315 315 314 314 314 313 313 313 313 313 313 313 312 312 312 312 311 311 311 311 310 311 317 323 326 326 325 324 326 327 328 329 327 326 325 325 324 324 323 322 321 321 319 316
315 318 321 323 326 326 328 327 319 319 321 318 316 317 323 323 316 316 317 315 315 313 311 313 316 317 317 317 317 317 317 317 317 318 318 318 318 318 318 318 318 318 318 318 317 317 316 315 315 315 315 315 315 315 314 314 314 314 314 313 313 313 313 313 313 312 311 311 311 311 311 312 312 310 313 320 325 326 326 326 327 327 328 328 328 327 326 325 325 325 324 324 322 321 320 319 318
318 320 323 325 326 324 326 328 321 321 322 321 321 319 319 319 316 316 316 314 314 313 314 313 311 314 315 315 317 317 318 318 318 318 318 317 317 317 317 318 318 318 318 318 317 317 316 315 315 314 314 314 314 314 314 314 314 314 314 313 313 312 312 312 312 311 311 311 310 311 311 311 312 311 313 318 322 324 326 325 325 325 325 325 326 326 325 324 325 324 323 322 321 320 319 319 319
321 322 324 327 328 326 331 330 325 323 319 319 324 318 317 323 325 323 317 316 317 317 320 316 310 312 313 313 317 318 319 319 318 318 317 317 317 317 317 317 317 317 317 316 316 315 315 314 314 314 314 314 314 314 314 314 314 314 314 313 313 312 312 312 312 311 311 310 310 311 311 311 311 311 312 315 320 324 325 325 324 324 322 322 323 323 323 324 325 323 322 322 321 319 318 318 318
319 319 324 329 330 329 332 329 325 324 318 318 325 319 314 318 324 322 315 317 322 320 321 316 311 313 314 315 317 318 320 319 318 317 317 318 317 318 318 317 317 317 316 316 315 315 315 314 314 314 314 314 314 313 313 313 313 313 313 313 313 313 312 312 312 311 311 310 310 310 311 311 311 311 312 314 318 321 322 323 322 322 321 321 322 322 323 325 325 322 322 322 321 319 318 318 318
316 323 328 329 331 333 333 330 324 320 318 321 325 321 314 315 322 324 319 321 323 319 320 320 317 317 316 318 319 319 320 318 317 317 317 318 318 318 318 318 318 317 317 317 317 316 316 316 315 315 315 314 314 313 313 313 313 313 313 313 312 312 312 312 311 311 311 311 310 310 310 311 311 312 312 312 314 317 318 320 321 322 322 322 323 324 324 324 324 323 322 321 320 319 319 318 318
320 329 329 322 328 333 330 328 323 316 317 321 323 321 315 315 322 324 321 323 321 319 322 324 323 320 318 319 320 318 319 317 317 317 317 318 318 318 318 318 318 318 318 318 318 318 318 317 317 316 316 315 314 314 314 314 313 313 313 312 312 312 311 311 311 311 311 311 310 310 310 310 311 312 313 313 314 317 319 321 321 322 323 324 325 325 324 323 323 323 322 321 320 319 319 318 318
324 324 322 315 319 324 323 324 323 320 320 319 319 320 317 315 318 320 320 322 321 319 319 320 321 320 318 318 318 317 317 317 317 317 317 317 317 318 318 318 318 318 318 318 318 318 318 318 318 317 317 316 315 315 315 315 315 314 314 313 313 312 312 312 312 311 311 311 310 310 309 310 311 312 313 314 315 317 320 321 322 324 324 324 325 325 324 324 323 323 322 322 321 319 319 318 318
321 318 319 318 318 319 319 320 320 321 322 319 317 318 320 320 320 321 321 318 317 315 315 318 319 318 318 317 317 318 317 317 317 317 317 317 317 318 318 318 318 318 318 318 318 318 318 318 318 317 317 316 316 316 316 316 315 315 314 314 314 313 313 313 313 313 312 311 310 309 309 310 311 312 313 315 316 318 321 323 323 324 323 324 325 325 324 324 323 322 321 321 321 320 319 318 317
319 319 319 319 322 322 321 321 320 321 322 319 315 317 324 325 322 322 318 313 314 315 315 318 317 317 318 317 317 318 317 317 317 316 316 316 317 318 317 317 317 318 318 318 318 318 318 318 317 317 317 317 317 316 316 316 316 315 315 315 315 314 314 314 314 314 313 312 311 309 309 310 311 312 313 314 316 318 321 323 323 322 321 322 324 325 324 323 322 321 321 321 321 320 319 318 317
317 320 318 317 321 321 320 323 325 325 321 318 318 322 326 323 320 319 315 313 315 314 315 317 316 317 316 316 318 317 316 317 316 316 316 316 316 317 317 317 317 317 317 318 318 317 317 317 317 317 316 316 316 316 316 316 315 315 315 315 315 315 315 315 314 314 313 312 311 310 309 309 310 310 311 313 316 319 320 321 322 321 319 319 322 324 323 322 321 321 320 320 320 320 319 318 317
317 318 317 320 322 319 318 320 318 317 316 317 318 320 320 317 316 317 315 315 315 313 312 314 315 317 315 315 317 316 316 316 316 316 316 316 317 316 317 317 316 316 316 317 317 317 317 317 316 316 316 316 316 316 316 316 315 315 315 314 314 314 315 315 314 314 314 312 311 310 309 309 309 309 311 313 317 319 320 320 321 321 320 320 321 322 322 321 320 321 320 320 320 320 319 317 316
319 320 317 317 320 321 324 322 317 316 315 317 317 315 315 314 315 318 318 315 316 317 315 313 314 316 315 316 316 315 316 316 316 317 316 317 317 317 317 317 316 316 316 316 317 317 316 316 316 316 316 317 317 316 316 316 316 315 315 314 314 313 314 314 314 314 314 313 312 310 309 309 309 310 312 313 316 318 319 320 320 320 321 321 320 320 320 320 320 320 320 320 319 318 317 315 314
318 320 317 318 322 323 324 321 318 318 316 319 320 315 314 314 312 316 317 315 317 318 318 317 315 313 314 315 315 315 316 316 318 318 317 318 318 318 317 316 316 316 316 316 316 316 317 316 317 317 317 317 317 317 317 317 317 316 315 315 314 314 313 313 314 313 313 313 312 311 310 309 309 311 312 314 315 317 317 318 319 320 320 320 319 319 320 320 320 320 320 320 318 316 315 314 314
317 316 314 319 325 324 323 320 318 320 316 316 318 314 314 315 313 314 315 316 317 316 320 321 313 312 315 316 315 316 316 317 319 318 319 319 318 318 317 316 317 316 316 317 316 316 317 317 317 317 317 317 317 318 318 317 317 317 316 316 315 315 314 313 313 313 313 313 312 311 310 309 310 310 311 313 315 315 316 318 319 319 319 319 318 318 319 320 320 319 319 319 318 315 314 314 313
318 318 317 318 318 319 322 320 319 320 318 316 315 313 314 314 315 315 315 317 317 315 320 319 312 312 316 316 315 317 317 318 319 319 319 318 317 317 317 316 317 317 317 317 316 316 317 317 318 317 317 318 318 318 317 317 317 317 317 317 316 315 314 313 313 313 313 313 312 312 310 310 310 309 310 312 315 316 316 318 319 318 318 318 318 318 318 319 318 317 317 317 317 315 314 314 313
317 317 318 317 316 318 319 318 318 319 320 322 318 313 314 313 314 316 316 318 318 314 314 314 313 314 316 316 316 317 318 319 319 318 317 317 317 317 317 317 318 317 317 317 317 317 317 317 317 317 318 318 317 317 317 317 317 317 317 317 316 316 314 313 313 313 313 313 312 312 311 310 310 309 309 311 314 316 316 317 318 318 317 317 318 318 317 317 316 316 316 315 316 315 315 314 313
Wind_Speed
4 6 5 4 3 2 1 3 1 2 3 2 0 2 1 2 3 4 4 4 4 4 8 9 11 14 9 11 14 13 11 2 3 3 5 12 18 14 12 13 13 13 13 13 13 11 11 10 10 11 12 11 11 11 11 11 11 10 9 9 10 10 11 12 13 14 15 15 15 15 14 15 15 14 14 14 15 15 17 19 20 18 15 12 11 13 16 17 18 18 19 20 22 22 22 21 21
4 5 4 4 2 2 3 2 1 2 4 3 1 2 2 2 5 4 4 3 4 5 9 11 12 15 16 17 13 10 11 7 7 13 16 19 19 14 13 14 14 14 13 13 13 11 11 11 11 11 11 11 11 10 10 11 10 9 8 8 9 9 10 11 13 14 14 15 16 16 15 15 15 15 14 15 16 16 18 19 19 17 14 13 12 15 17 17 18 18 20 21 21 21 21 20 20
4 4 4 3 1 3 3 1 2 2 4 3 2 1 2 5 5 4 6 8 10 11 11 10 9 10 12 11 7 6 6 6 13 22 23 21 20 17 15 15 15 14 13 13 12 11 10 11 11 11 12 12 12 11 10 10 10 8 8 8 8 8 8 10 13 13 14 15 16 16 16 16 16 14 13 14 15 14 17 17 17 15 11 10 11 15 17 18 19 19 20 21 21 21 20 20 19
4 4 3 1 4 3 2 2 2 4 3 3 1 2 3 7 6 5 9 12 11 11 9 8 6 8 11 11 9 10 9 8 13 22 25 22 20 20 17 16 16 14 14 13 13 12 11 10 11 12 12 12 12 11 10 9 9 8 7 7 7 7 8 11 12 13 13 14 15 16 15 15 15 14 13 13 14 15 16 15 15 13 10 9 12 16 18 19 19 19 20 20 20 20 19 19 18
4 4 2 1 3 1 2 2 1 5 1 4 2 1 4 7 7 6 9 10 9 9 7 6 4 6 12 10 8 9 10 12 15 20 25 23 20 21 18 15 16 14 14 13 13 12 11 11 10 12 12 12 12 11 10 9 9 7 7 6 6 6 8 10 12 12 13 13 14 15 15 14 14 14 12 12 14 16 16 14 14 13 10 11 14 18 19 20 19 19 20 20 20 19 19 18 17
6 5 2 2 2 2 1 2 2 4 1 4 5 4 6 7 9 10 11 10 9 9 8 7 6 7 10 9 10 12 12 12 15 19 23 22 19 21 20 15 14 14 14 14 13 12 12 11 11 12 13 13 12 11 10 9 8 7 7 6 5 6 7 9 11 12 12 12 13 14 15 14 14 14 13 12 14 17 15 12 13 15 14 14 17 20 20 20 19 20 20 20 20 19 19 18 17
6 4 0 3 2 1 2 3 2 2 2 2 7 6 6 9 14 14 10 7 6 7 8 7 9 9 7 7 11 11 10 9 12 15 18 19 19 22 21 16 14 13 13 13 12 12 12 11 11 11 13 14 13 12 11 9 8 7 7 6 5 6 7 9 10 10 11 11 12 14 14 14 14 14 13 13 14 15 15 13 13 14 14 15 18 20 20 19 19 20 20 20 20 19 19 18 17
4 2 2 2 1 2 3 3 2 3 2 3 8 9 11 14 16 12 5 5 4 4 7 7 9 8 4 8 7 8 13 11 8 11 14 18 20 22 22 17 14 14 13 12 11 11 11 11 11 10 11 13 13 13 11 10 9 8 7 6 5 5 6 7 9 9 10 10 11 12 13 14 13 13 13 12 13 14 14 13 13 14 14 16 19 20 20 19 19 20 20 20 20 20 19 18 18
3 1 1 1 1 3 2 2 1 2 1 4 7 12 17 16 14 11 5 5 7 6 7 6 6 6 5 9 9 9 14 11 9 10 13 17 22 23 21 18 16 15 13 12 11 11 11 10 11 10 11 12 13 13 12 10 9 8 7 6 5 5 5 6 7 8 8 9 10 11 12 12 13 13 12 12 12 13 14 13 13 14 16 18 20 19 19 18 18 19 20 20 20 20 19 18 18
2 1 1 2 2 3 2 1 1 1 2 5 8 14 18 16 15 14 10 7 9 8 6 5 6 9 10 10 10 9 11 11 11 13 12 17 23 22 20 17 16 15 14 13 11 11 11 10 11 11 11 12 13 13 12 10 9 9 8 7 6 5 4 5 6 7 7 8 9 10 11 11 12 12 12 12 12 12 13 13 14 15 17 18 18 19 18 17 18 19 20 20 21 20 19 19 18
1 1 0 3 3 2 2 1 3 2 2 4 6 12 15 15 14 12 13 10 10 10 6 5 6 13 12 7 9 8 11 11 11 14 13 19 25 22 19 16 15 15 14 13 11 11 11 11 11 12 12 12 12 12 11 10 10 10 8 7 7 6 5 4 5 6 6 7 8 9 9 10 11 12 12 12 12 12 13 14 15 16 18 17 17 18 17 17 18 19 20 20 21 20 19 19 18
1 1 2 3 0 1 4 4 5 3 3 4 3 8 9 10 10 9 13 11 11 10 7 5 4 10 9 4 8 9 11 12 11 13 14 23 25 21 19 15 15 15 14 13 12 11 12 12 12 12 13 12 12 10 10 10 10 10 9 8 7 7 5 4 4 5 6 6 7 8 8 9 10 10 11 11 12 12 12 13 14 16 16 16 16 16 17 17 17 19 20 20 20 19 19 18 17
1 1 5 2 3 4 4 4 5 3 3 3 4 8 8 7 7 9 14 12 11 9 5 5 5 7 6 5 10 10 12 13 13 12 17 24 24 22 21 18 16 16 15 14 13 12 12 13 12 13 13 12 12 10 10 10 10 10 10 10 9 8 7 4 3 4 5 5 6 7 7 8 9 9 10 11 11 12 12 13 14 15 15 15 15 16 16 16 17 19 19 18 18 18 17 16 15
1 1 4 1 2 2 4 4 3 4 0 4 6 11 10 7 4 7 13 9 7 9 8 6 6 5 5 7 9 12 13 14 14 13 18 24 25 24 22 20 17 17 17 15 14 13 13 14 13 13 13 13 12 11 11 10 9 9 10 10 10 9 8 6 3 3 4 5 5 5 6 6 7 8 8 10 11 11 12 12 13 14 15 15 15 16 16 16 17 18 18 17 16 16 15 15 14
2 2 3 1 3 2 1 3 4 6 1 3 8 13 11 7 4 6 11 7 5 12 11 7 6 3 5 6 7 15 16 14 16 16 19 23 25 24 22 21 19 18 18 17 16 15 14 14 15 14 13 13 13 12 12 11 10 9 9 10 10 10 9 7 5 4 4 4 4 4 5 5 6 6 7 8 9 10 11 12 12 13 13 14 15 15 15 15 17 17 16 15 14 14 14 13 13
2 2 4 2 2 1 1 2 5 5 1 3 10 13 8 5 6 8 7 8 10 13 8 6 6 3 5 7 6 12 15 14 17 18 20 22 24 24 22 21 21 19 18 18 18 17 16 16 16 15 15 14 14 13 13 12 11 10 9 9 10 11 10 8 6 5 4 3 3 3 3 4 5 5 6 7 8 9 9 10 11 12 12 13 14 14 15 15 16 16 15 14 12 12 12 12 11
2 1 5 1 1 0 1 0 3 4 3 5 10 12 7 3 5 9 8 9 13 10 7 7 7 5 6 4 5 9 12 15 17 19 20 21 23 23 23 23 22 21 18 19 19 19 18 17 17 16 16 16 15 14 14 13 12 12 11 10 11 11 11 9 8 7 6 4 4 3 3 3 4 5 5 6 7 8 8 9 10 10 11 11 12 13 13 13 14 14 13 12 10 10 10 9 9
2 2 4 1 1 1 2 3 4 6 5 6 12 13 9 6 6 10 8 8 11 8 7 8 8 8 6 4 7 8 10 14 16 18 18 19 22 22 24 24 24 23 21 20 20 20 20 19 18 17 17 17 17 16 15 14 13 13 13 12 12 12 12 11 10 8 7 6 5 4 3 3 3 4 5 5 6 7 7 8 8 9 10 10 10 11 11 12 12 13 12 11 9 8 7 7 8
2 2 4 2 3 1 4 1 3 6 8 11 14 13 8 9 12 11 6 6 10 7 6 8 8 9 8 9 9 8 10 12 15 17 17 17 19 20 22 24 24 24 23 22 21 21 21 20 20 19 18 18 18 17 16 15 14 14 14 14 13 12 12 12 11 9 8 7 6 6 5 4 3 4 5 5 6 6 6 7 7 8 9 9 9 10 10 11 12 12 11 10 9 7 6 6 7
2 3 3 3 5 3 6 6 4 5 15 14 12 12 6 9 14 12 6 6 8 8 9 9 10 12 12 13 13 11 11 12 14 16 16 16 16 17 19 21 23 22 21 21 21 21 21 21 21 20 19 19 18 18 18 17 16 15 15 15 14 13 14 13 12 11 10 9 8 8 7 6 5 5 5 6 6 6 6 7 7 8 8 9 9 9 10 11 11 11 11 10 10 8 6 6 6
2 3 4 4 4 3 4 5 5 6 15 16 12 9 6 10 14 11 8 6 4 11 15 13 13 15 16 16 16 14 13 12 13 15 16 16 16 17 17 18 18 19 19 21 21 21 21 22 21 21 21 20 20 19 19 19 18 16 16 16 15 14 14 14 14 13 11 10 10 10 9 8 7 6 7 6 6 7 7 6 7 8 8 8 9 9 9 10 10 10 9 9 9 8 6 5 5
2 2 4 2 4 3 1 2 5 6 11 14 11 8 8 10 10 11 10 6 5 11 17 16 13 14 15 17 18 17 16 14 13 14 14 15 15 16 17 18 18 19 20 21 20 20 21 22 22 22 23 22 22 22 21 20 19 18 17 16 15 15 15 15 15 14 13 12 12 12 11 10 9 9 9 8 7 8 8 8 8 8 8 9 9 9 9 9 9 9 9 8 7 7 5 4 4
3 1 4 6 4 5 2 3 5 5 10 11 7 6 10 9 6 9 11 8 5 5 9 11 13 13 13 15 17 18 17 16 15 13 13 14 14 15 16 17 19 19 20 20 19 19 20 22 23 23 24 24 24 24 23 23 21 20 18 17 16 16 16 16 16 15 15 14 14 14 12 11 10 10 11 10 9 9 9 9 9 9 9 9 10 11 10 10 9 9 9 8 8 7 5 4 4
4 1 2 5 5 6 4 4 6 5 8 8 6 7 8 7 4 6 11 13 9 5 5 5 7 11 14 14 15 15 14 14 13 13 13 13 13 13 13 15 17 19 20 20 20 20 20 20 21 23 25 25 26 26 25 24 23 22 20 19 18 17 17 17 17 16 16 16 16 16 15 14 12 12 12 12 11 10 9 10 10 11 11 11 11 12 12 11 11 11 11 11 10 8 7 5 4
3 2 3 5 4 4 3 4 6 4 5 5 5 5 4 5 4 5 11 14 13 11 9 7 5 10 14 14 14 13 13 13 12 13 14 14 14 14 15 16 16 19 21 21 21 20 20 20 20 23 25 25 26 26 26 25 24 23 23 22 21 20 19 18 17 17 17 18 18 18 17 17 15 14 14 14 14 13 11 11 11 11 12 13 13 13 13 12 12 13 13 13 11 10 8 6 5
1 6 6 6 4 4 4 4 5 3 2 2 2 1 2 4 3 7 13 14 16 15 12 11 9 10 13 13 14 13 12 12 12 13 14 14 16 18 18 18 19 19 20 20 21 21 20 21 22 23 24 25 25 26 26 25 24 25 25 24 23 22 21 19 19 18 18 19 19 19 19 19 18 16 15 15 16 16 14 12 11 12 12 13 14 14 13 13 13 14 14 14 13 11 9 8 6
5 11 9 8 6 4 4 2 4 4 1 1 2 1 1 4 2 6 11 10 14 18 14 13 13 13 14 14 15 14 14 14 14 14 14 15 18 19 19 20 21 19 19 21 21 20 21 22 22 22 23 24 25 26 27 26 25 26 25 25 25 24 23 23 22 20 19 19 20 20 20 20 20 19 17 17 18 18 17 14 12 13 14 14 14 14 14 14 14 15 15 15 14 12 10 9 8
12 14 8 5 4 3 3 3 5 4 1 1 1 2 1 3 2 10 13 7 11 18 18 16 15 15 15 15 16 16 17 16 15 17 17 19 19 19 20 20 21 20 20 20 20 20 20 21 21 22 22 22 23 25 26 27 27 26 26 25 25 25 25 26 26 25 22 20 20 20 20 22 22 21 19 18 19 19 19 16 14 15 16 16 15 14 14 14 15 16 16 16 15 13 11 10 9
12 10 5 1 3 2 4 5 5 4 1 2 2 3 3 2 8 16 14 8 9 15 19 18 17 16 15 16 17 17 18 17 18 20 20 19 19 19 19 19 20 21 21 20 20 21 20 20 21 21 22 22 23 23 25 26 26 26 26 26 26 26 27 28 29 28 26 23 23 22 21 22 24 22 21 20 20 21 20 19 18 17 18 18 16 15 14 14 15 16 18 18 17 15 13 11 11
6 4 4 2 5 4 7 5 5 4 2 2 2 1 6 5 14 18 12 11 11 14 18 19 18 17 16 15 17 17 17 18 20 20 19 18 18 19 19 19 21 22 22 21 22 22 21 21 21 22 22 23 23 24 25 26 26 27 27 27 27 26 27 29 29 29 29 28 26 25 23 24 25 23 22 22 23 22 22 22 21 21 20 19 19 18 16 15 15 16 19 20 19 17 15 13 12
3 2 2 3 2 4 6 4 7 4 2 3 4 1 7 7 13 13 8 12 13 15 18 17 17 16 16 16 16 18 18 19 21 20 19 18 18 18 19 19 21 23 24 24 24 23 23 23 23 23 23 24 24 24 25 25 26 27 28 28 27 26 26 27 28 28 29 30 30 29 26 25 25 24 23 23 24 24 23 24 24 24 23 21 20 20 18 17 16 17 20 22 21 20 18 15 13
2 3 3 3 3 3 6 2 9 5 3 4 4 1 7 8 10 7 4 12 13 15 16 15 17 16 17 17 17 19 19 20 21 21 21 20 19 19 19 19 21 23 24 25 25 25 25 25 25 25 24 25 25 25 25 25 25 27 28 29 28 28 27 27 27 27 27 29 31 30 27 27 28 27 26 25 25 25 25 26 26 26 26 23 23 23 20 19 17 17 20 22 23 22 20 18 15
3 3 2 2 3 2 4 2 5 5 3 2 2 2 4 5 4 1 4 10 12 13 14 15 17 17 18 19 19 20 20 21 22 22 21 20 19 19 18 19 20 23 25 25 25 26 26 26 27 26 25 25 25 25 25 25 26 27 28 29 30 30 30 29 28 28 28 28 30 29 27 28 31 30 28 27 26 25 27 29 28 28 29 27 26 26 23 21 20 19 21 22 24 24 22 20 18
3 1 1 3 3 4 2 3 3 4 5 2 2 2 6 8 9 8 6 8 11 13 15 17 17 17 18 19 21 23 23 24 24 23 21 21 21 20 19 18 18 21 24 25 26 26 26 26 27 27 26 25 24 25 25 25 26 27 29 30 31 32 33 33 32 32 32 30 30 30 30 29 29 30 30 29 27 26 27 29 29 28 31 30 28 28 27 26 24 24 24 23 25 26 24 23 20
3 2 2 3 2 3 3 3 3 3 3 2 2 3 9 11 14 18 16 14 15 18 20 21 20 20 20 20 23 25 27 28 27 26 24 24 24 23 22 20 19 19 21 24 25 26 27 27 27 27 27 26 25 25 25 26 27 28 29 30 32 34 34 35 34 34 34 32 30 31 34 32 29 29 31 32 31 28 28 29 30 29 30 32 32 31 30 30 30 29 28 25 26 28 26 24 21
6 6 5 3 2 1 3 2 2 2 3 4 5 6 9 10 12 17 22 20 18 23 25 25 25 24 23 23 25 27 29 31 29 27 26 25 25 24 23 22 21 21 21 22 24 26 27 27 28 28 28 27 26 27 27 28 30 31 31 31 32 33 34 35 35 34 34 33 31 31 34 36 34 32 32 35 33 30 30 31 31 30 29 30 33 35 32 31 32 32 30 27 27 30 28 25 23
7 5 4 4 4 1 3 2 4 1 2 5 7 6 8 10 10 15 25 23 15 20 23 26 28 27 27 26 27 30 31 32 29 27 27 26 26 26 24 24 23 23 24 25 25 26 26 26 27 27 27 28 28 28 29 30 31 32 32 32 31 31 33 34 35 35 34 33 32 31 33 35 37 36 35 35 32 30 32 31 32 33 32 30 32 36 33 31 33 34 31 29 29 31 31 30 26
5 5 5 2 2 2 3 2 5 3 1 5 4 5 10 11 10 15 21 18 15 20 21 25 29 29 29 28 29 32 32 32 30 29 28 27 27 27 26 25 25 25 26 27 27 26 26 26 26 26 26 27 28 29 29 30 31 31 31 30 28 28 30 32 34 35 34 34 33 33 33 33 36 37 38 38 35 34 35 34 35 36 36 34 34 36 35 31 34 35 32 30 32 34 34 33 29
5 4 5 2 1 2 2 3 5 2 2 4 5 5 10 12 10 14 18 17 23 28 25 26 29 28 29 29 31 33 33 33 32 30 28 26 27 26 26 26 25 25 25 26 27 27 28 28 26 26 26 27 27 28 30 30 30 30 30 29 28 28 29 30 33 35 35 36 35 34 34 33 34 36 39 41 41 40 40 39 38 36 36 36 36 38 35 31 32 35 33 31 33 36 35 34 31
4 4 5 1 3 1 2 4 4 1 1 2 4 5 10 11 7 10 19 24 29 31 27 27 28 28 30 31 32 33 33 33 31 29 27 25 26 25 26 26 24 25 25 26 27 28 29 29 28 28 28 28 28 29 29 30 29 30 30 30 30 29 29 30 32 35 36 37 36 35 34 33 33 34 36 39 40 40 38 36 33 31 33 35 37 37 34 32 32 35 36 34 36 38 38 36 32
2 3 6 3 2 2 3 2 2 3 4 2 3 5 7 7 5 6 11 12 18 23 23 25 27 28 31 32 31 31 31 31 29 26 25 24 24 24 23 23 23 24 25 25 26 26 27 28 30 30 30 30 30 30 30 30 30 30 31 32 32 32 32 31 32 34 36 37 37 35 34 33 32 34 34 33 32 32 31 30 27 27 31 34 37 36 33 32 33 35 38 37 39 40 40 39 36
4 1 5 6 5 5 3 2 4 5 5 3 3 4 6 5 5 7 7 5 8 12 13 18 23 24 27 29 28 27 27 27 26 23 21 21 21 21 21 22 23 25 25 24 24 24 25 26 28 30 31 32 32 31 31 30 30 31 32 32 33 33 33 32 31 32 33 35 35 34 33 32 32 34 33 29 29 31 31 30 29 29 33 37 38 37 35 34 35 37 39 39 39 40 41 41 37
1 3 4 5 6 6 5 5 4 1 3 4 2 2 6 8 7 9 9 9 12 10 10 17 25 27 28 28 25 22 21 22 22 21 21 21 21 21 22 22 23 23 23 22 22 23 23 24 25 27 29 31 32 32 32 31 31 31 32 33 33 33 32 31 29 29 30 31 32 32 32 31 32 32 32 31 32 33 32 31 31 32 34 36 38 36 33 34 37 39 41 40 39 41 43 42 35
2 5 3 4 7 6 4 6 3 2 2 5 2 3 3 7 8 8 8 10 10 9 11 17 25 31 30 26 21 17 15 15 16 18 19 19 20 20 20 20 20 20 20 21 22 22 23 23 23 24 26 28 31 32 32 32 31 32 32 33 32 32 31 29 28 27 27 28 30 31 31 31 31 32 33 34 35 35 33 33 33 33 33 33 35 34 32 34 38 42 43 42 41 43 44 42 36
5 5 4 5 7 6 5 6 2 1 2 5 4 2 2 6 7 6 4 5 7 10 12 14 20 27 24 19 16 13 12 12 11 12 13 13 14 15 16 18 18 18 18 19 20 20 21 21 21 23 24 26 29 30 30 31 31 31 31 32 31 30 29 28 28 28 27 28 30 30 30 30 31 32 34 36 37 37 37 37 36 37 37 36 36 35 35 36 40 44 43 40 41 44 43 42 39
4 3 5 6 5 5 5 5 3 3 2 5 5 4 2 5 6 4 0 2 7 9 9 10 14 18 15 11 11 12 11 10 9 9 9 9 10 11 13 14 14 14 14 15 16 16 17 18 19 21 22 24 26 27 27 28 29 30 31 31 30 29 28 28 29 29 28 29 30 30 30 29 30 32 34 36 37 38 39 39 38 37 37 37 36 35 37 37 38 40 40 36 37 40 41 42 40
7 6 6 7 6 5 4 3 4 3 4 6 8 9 4 4 6 4 3 4 6 4 4 7 6 5 7 10 11 10 10 9 9 9 8 8 9 9 10 10 9 9 10 11 12 13 14 15 17 18 20 21 23 23 24 25 26 28 28 28 28 27 27 28 30 30 29 29 30 31 30 30 30 31 33 35 36 37 37 36 34 33 33 35 35 35 37 36 34 34 35 36 36 37 38 39 40
7 5 5 4 4 4 5 4 4 1 5 6 6 6 5 5 6 4 5 7 5 5 2 4 2 5 11 12 10 9 9 9 10 9 8 9 9 8 8 7 6 7 7 7 8 10 11 13 14 15 17 18 19 20 20 21 22 23 24 24 25 25 26 28 29 30 30 29 28 29 30 31 31 32 33 34 35 35 34 32 31 32 33 33 33 33 33 31 30 31 33 35 36 37 39 40 41
5 5 6 4 2 2 3 3 0 3 6 4 2 2 3 6 6 5 8 9 6 5 2 3 5 8 9 8 8 9 10 10 10 10 10 9 9 8 7 7 7 7 7 7 8 9 10 12 13 13 14 14 15 16 16 16 17 17 18 19 21 22 23 26 27 29 29 28 27 28 30 31 31 32 33 34 34 32 30 30 32 33 33 32 31 31 29 29 29 30 31 34 37 38 40 41 44
5 5 6 5 3 2 3 3 1 4 6 4 1 1 3 5 4 8 11 11 12 9 5 3 6 6 5 4 6 10 11 9 10 11 11 10 9 8 8 8 9 9 9 9 10 11 12 12 13 12 11 11 11 11 11 11 12 13 14 15 17 18 20 23 25 26 27 26 26 27 29 30 30 30 30 30 30 29 29 30 30 30 30 30 31 32 32 32 30 28 29 32 36 37 38 42 46
5 5 6 6 5 5 4 3 3 4 4 3 2 1 3 2 3 7 8 10 13 10 5 6 6 8 9 9 8 11 11 12 13 14 12 10 10 9 8 10 11 12 12 12 12 13 14 13 12 11 10 9 8 8 7 8 8 10 11 12 14 16 18 20 22 24 24 24 24 26 28 29 29 29 28 27 26 26 29 30 28 28 29 30 32 34 36 36 33 28 28 30 33 36 39 45 48
3 3 5 4 6 5 2 3 6 4 1 2 2 3 5 4 6 9 8 10 13 11 7 7 11 14 13 12 11 10 12 15 15 15 15 13 12 10 11 14 15 15 16 15 15 15 14 13 11 10 8 7 7 6 5 6 7 8 9 10 11 13 15 17 19 21 22 23 23 25 27 27 28 28 28 28 27 27 29 30 30 29 30 32 35 38 40 40 36 30 28 31 34 38 41 45 45
2 3 4 5 5 7 3 3 0 3 2 4 2 5 6 3 7 9 9 10 11 10 11 12 16 17 13 13 14 12 14 16 17 19 19 15 13 13 14 15 17 17 18 18 17 15 13 11 10 9 9 8 7 6 5 5 6 7 8 9 10 11 12 14 15 17 20 22 22 24 25 26 26 27 28 29 29 29 30 31 31 31 32 35 38 41 42 40 36 31 30 33 36 39 43 44 43
5 4 6 2 2 3 4 1 2 2 4 4 2 7 6 3 5 5 3 3 6 6 9 14 19 19 19 21 21 18 15 14 15 20 21 17 14 14 14 14 16 16 17 18 17 15 12 11 11 10 9 8 6 6 5 5 7 7 8 9 11 11 11 12 14 15 17 20 22 23 25 26 26 26 28 29 30 32 32 31 32 32 34 36 37 38 38 37 36 32 32 37 39 42 43 42 41
5 4 4 4 2 1 2 3 2 2 4 4 4 5 4 5 7 2 3 6 8 8 8 10 15 20 24 26 25 20 13 10 14 19 21 19 16 15 14 13 13 14 16 17 16 15 14 13 12 12 10 9 8 7 7 7 7 8 8 9 10 11 12 12 13 15 17 18 21 22 24 25 25 26 28 30 31 32 32 32 32 31 31 32 34 36 35 35 36 35 35 39 41 40 39 39 41
2 2 2 2 3 4 4 3 4 4 3 4 5 4 5 8 6 5 5 8 8 9 8 7 13 20 23 24 23 16 11 12 14 15 16 16 15 15 13 11 11 12 14 15 17 16 15 15 14 13 13 12 11 9 8 7 7 7 8 9 10 11 12 12 13 15 18 19 20 21 23 24 26 27 28 29 30 31 32 33 33 30 28 28 31 35 35 36 39 40 40 40 39 38 37 38 40
3 3 4 2 1 2 2 1 3 4 4 3 3 6 8 7 4 7 9 9 9 10 8 8 15 22 21 19 17 12 11 15 14 12 12 13 13 12 10 9 10 12 13 15 18 18 17 17 17 16 15 14 13 11 9 8 7 7 7 8 10 13 14 14 13 15 18 19 20 21 22 24 26 28 28 28 29 31 31 32 32 31 29 28 31 34 36 39 41 41 39 38 36 36 36 37 37
8 7 8 7 5 4 2 3 2 2 3 4 4 6 12 5 5 7 8 7 7 5 6 9 13 18 18 14 11 10 13 14 13 11 10 9 8 8 9 10 12 14 15 17 19 20 20 20 19 18 18 16 14 13 11 9 8 9 9 10 12 14 15 15 14 15 18 20 21 21 22 24 26 28 29 30 31 32 32 31 31 31 30 30 32 33 35 38 39 38 37 37 36 35 35 35 35
Wind_Direction
197 196 207 212 221 222 360 29 20 330 72 88 165 93 208 180 115 99 85 74 72 59 88 97 74 77 98 110 113 92 59 60 169 133 143 150 153 161 153 154 163 155 149 146 144 142 139 135 135 133 128 127 125 118 112 110 105 97 88 82 72 65 59 54 51 49 48 47 48 52 55 57 57 61 65 67 73 82 85 88 92 88 83 78 83 93 91 89 88 88 89 90 93 96 97 97 95
207 196 212 222 232 341 11 57 71 348 56 56 320 123 161 43 60 98 111 94 117 130 109 101 81 84 111 116 107 78 48 47 120 126 128 143 153 156 150 160 165 156 153 147 145 145 143 141 141 137 133 132 128 123 117 115 110 102 95 87 76 69 61 54 52 50 49 47 46 49 51 54 55 60 65 68 76 87 94 96 94 92 93 87 88 97 95 93 93 93 93 93 95 97 98 98 97
210 189 203 213 88 347 333 25 96 85 77 90 278 281 92 79 97 129 119 114 120 124 111 103 82 73 97 100 70 75 91 86 119 126 132 152 155 148 155 164 159 156 155 148 149 150 148 146 145 142 138 135 131 130 125 119 114 107 102 93 80 72 60 53 53 52 52 48 45 47 49 51 52 57 61 71 82 89 95 100 101 102 106 100 96 99 97 98 98 97 96 96 97 99 101 101 101
200 188 184 106 52 8 2 59 141 117 103 146 218 300 95 117 136 128 116 118 121 117 108 101 77 62 78 97 91 89 119 127 136 137 142 161 159 147 154 159 155 156 154 150 153 152 154 152 150 147 141 138 136 137 130 123 118 111 108 98 81 70 54 50 53 54 54 50 47 48 51 52 53 54 59 71 80 82 85 93 105 111 113 109 105 100 100 102 101 99 98 98 99 101 103 104 105
192 193 171 39 41 7 80 57 120 96 128 185 141 161 138 134 139 124 113 113 116 107 108 110 93 90 84 95 106 98 125 132 143 148 150 162 165 151 149 158 154 154 153 152 155 155 158 159 157 152 146 145 144 142 135 129 125 120 115 102 84 70 53 50 53 55 55 52 49 51 54 56 58 58 62 69 77 82 82 83 93 99 101 102 102 101 103 105 103 102 101 101 102 103 105 106 106
183 188 229 300 313 293 75 56 58 68 272 171 125 160 154 138 134 119 105 102 104 103 108 106 114 121 84 81 104 117 139 138 146 156 154 157 167 158 151 161 155 152 156 154 157 158 162 162 162 159 153 152 151 149 142 138 134 129 119 106 92 76 59 54 57 56 55 54 51 52 54 57 61 62 67 71 81 94 99 96 92 90 90 94 101 105 106 107 108 107 106 105 105 107 109 109 109
187 166 345 314 305 321 87 108 130 87 1 105 126 156 152 135 131 120 109 99 95 107 106 101 122 115 86 112 110 116 150 160 154 158 155 150 163 163 152 156 157 157 158 157 160 160 165 162 162 164 160 155 154 153 147 144 142 139 128 116 106 87 69 59 60 60 57 57 53 54 55 57 62 63 68 75 82 97 105 105 101 96 96 102 108 110 110 111 112 111 109 107 107 110 112 112 110
181 104 41 27 26 28 81 111 162 151 25 53 123 140 140 137 134 126 130 125 127 131 106 110 123 101 103 143 113 119 150 167 172 162 159 152 160 162 151 154 162 162 160 161 163 163 169 164 164 168 166 160 156 155 152 150 149 148 140 129 121 101 80 64 64 65 62 62 59 58 58 58 64 65 69 74 79 91 102 106 105 104 107 112 115 114 113 114 114 113 111 108 107 109 109 106 104
154 22 356 89 38 17 52 69 66 133 84 80 114 134 135 138 140 132 134 129 142 139 113 122 114 115 134 117 111 143 157 169 181 166 160 157 160 159 151 157 166 164 163 166 168 170 172 171 170 170 171 166 158 157 156 155 156 157 151 139 134 122 97 75 74 72 68 68 65 65 64 63 67 69 71 72 75 86 99 107 111 112 114 116 118 117 117 117 117 115 112 109 106 104 103 99 99
144 269 301 79 26 22 37 326 75 114 140 117 119 138 140 145 146 137 131 123 140 132 125 130 101 133 134 108 123 154 166 169 174 170 161 158 161 156 150 162 170 166 168 171 174 176 177 178 175 173 174 169 163 162 161 161 161 162 157 148 144 138 118 95 89 84 81 76 72 72 72 71 71 72 74 76 76 81 91 99 107 113 116 119 120 120 121 122 120 116 111 108 104 102 101 99 99
139 238 225 70 34 40 152 163 121 130 144 107 107 138 146 153 147 133 128 123 139 136 145 148 111 131 123 116 137 143 167 173 176 174 161 159 162 155 152 168 175 173 174 175 179 181 181 182 180 178 176 173 169 166 165 166 166 164 161 156 152 151 141 121 106 97 93 88 82 79 79 77 76 78 78 81 82 82 87 94 103 110 115 119 121 121 122 123 119 114 110 107 105 104 102 100 99
316 316 86 90 118 166 164 145 145 141 110 99 104 142 146 150 137 129 133 130 143 142 154 159 142 138 111 111 143 140 168 174 173 173 160 160 165 157 159 175 180 180 178 179 185 188 186 185 185 183 181 179 176 171 171 170 170 168 163 163 159 159 161 145 123 109 100 97 90 81 84 85 82 83 84 87 89 89 92 96 102 106 109 113 116 119 122 122 118 113 110 109 108 105 102 99 98
257 22 81 108 209 155 142 138 152 114 94 175 171 152 147 144 134 141 142 137 144 142 147 151 161 150 103 106 144 155 171 175 169 164 157 162 168 162 166 180 183 183 183 185 189 189 189 189 190 189 187 187 186 179 178 177 176 174 168 168 166 166 170 168 146 121 107 102 94 79 80 89 88 87 89 91 94 96 98 100 104 107 109 112 117 120 122 121 118 115 113 111 108 105 102 99 95
226 16 99 171 268 137 136 119 123 108 228 245 163 150 152 147 136 149 141 127 134 143 146 147 148 137 114 120 155 177 177 178 168 156 157 164 172 169 172 180 183 186 187 191 192 193 191 192 194 192 192 194 196 190 185 184 184 186 179 175 173 172 176 179 168 138 122 111 100 81 77 91 95 92 93 95 97 100 102 105 107 110 113 115 118 120 122 121 118 116 115 113 110 105 101 97 91
215 351 104 115 356 351 151 115 122 121 180 240 155 153 147 139 127 134 138 127 125 145 149 147 144 133 160 169 189 189 184 180 165 160 164 168 175 177 178 180 184 189 192 195 195 198 194 193 197 196 196 196 199 199 196 192 191 196 191 185 182 180 182 185 180 163 149 131 116 97 85 96 108 104 102 103 103 105 108 110 110 112 115 116 118 119 121 120 117 117 116 115 111 103 99 95 87
216 344 74 65 348 332 313 109 109 105 197 196 160 158 139 129 127 111 123 144 140 143 152 153 158 138 168 188 187 179 184 181 170 170 173 174 180 183 183 185 189 192 196 199 197 200 197 196 200 199 199 199 202 203 203 199 196 199 197 196 192 189 190 190 192 186 179 165 147 132 113 110 119 123 119 116 114 116 115 115 116 115 117 118 119 121 122 122 120 120 119 118 112 103 99 95 87
185 26 65 28 286 107 306 165 130 141 196 186 168 167 144 121 131 115 113 140 142 142 145 140 156 143 136 159 144 160 180 184 180 180 181 181 185 188 189 193 196 196 198 201 201 202 200 200 202 202 201 202 205 205 207 205 202 201 201 202 200 198 196 195 199 198 194 190 185 177 153 129 130 140 137 130 126 127 125 123 124 121 121 123 123 125 127 127 125 125 125 123 117 107 103 96 88
152 103 94 228 240 83 291 240 169 140 149 179 177 174 154 153 159 138 124 129 138 142 149 146 158 160 151 142 142 162 179 186 189 189 191 189 192 194 195 199 203 204 203 204 206 206 206 205 204 205 204 205 207 208 209 209 206 205 204 206 207 207 203 201 202 204 207 204 205 208 193 159 151 160 152 144 138 136 138 135 134 131 129 129 129 130 132 134 135 135 134 132 128 117 112 102 90
162 108 116 215 201 95 353 39 129 124 156 175 178 180 170 179 175 158 158 157 150 144 150 160 163 165 171 165 165 181 184 189 194 196 201 199 200 202 202 206 209 212 213 212 211 210 212 212 210 209 208 210 211 210 210 209 207 206 206 208 211 213 212 209 206 210 216 215 218 223 220 200 187 183 172 166 157 151 153 151 148 145 141 139 139 140 141 145 148 149 147 144 142 136 128 112 93
196 96 116 230 196 121 26 50 63 130 160 165 177 188 187 186 177 169 177 169 170 176 172 179 185 186 185 179 179 188 190 193 197 202 208 209 210 212 212 213 215 219 221 222 220 215 216 218 218 215 213 214 215 215 212 209 209 207 208 210 214 217 216 214 211 212 219 223 227 231 231 223 212 198 192 188 180 174 170 169 166 162 156 152 152 153 154 159 163 164 162 159 155 152 145 119 93
190 119 156 217 171 118 21 50 55 114 156 164 167 165 160 174 179 180 168 147 211 217 200 202 206 203 200 194 191 193 196 195 197 206 210 214 216 217 221 222 224 227 226 227 227 221 220 224 224 220 219 218 219 221 218 215 212 209 209 212 216 219 219 217 214 214 220 227 230 233 233 230 224 209 204 205 198 191 187 189 186 179 174 168 167 170 171 172 176 177 176 174 165 157 148 120 95
112 113 133 121 123 116 5 78 73 94 146 158 149 134 153 168 180 187 174 160 223 230 219 220 221 214 207 201 199 198 200 202 203 208 212 217 219 221 224 224 226 227 226 228 230 229 226 228 229 226 224 223 223 226 227 223 218 215 215 216 216 218 218 217 216 217 221 225 229 235 235 232 226 215 213 214 212 206 201 204 199 192 191 186 183 183 185 184 186 187 187 186 176 163 149 127 104
116 130 92 76 108 132 144 145 106 101 130 135 125 135 158 161 182 199 201 204 200 210 213 215 218 219 214 205 203 201 202 206 210 215 217 219 222 224 225 225 228 228 231 231 232 233 231 231 232 230 228 227 228 229 230 228 227 225 220 219 220 220 220 218 217 217 220 222 227 236 242 241 230 221 223 223 222 219 211 211 209 205 202 199 196 195 197 194 191 192 194 195 189 178 166 151 128
128 173 98 85 107 125 139 163 135 114 123 122 123 144 160 169 189 207 217 219 211 203 195 194 194 199 205 202 197 200 203 208 216 223 224 227 229 233 234 233 233 233 237 236 234 234 234 234 233 233 232 230 230 231 231 231 232 230 225 223 222 223 226 223 219 218 219 221 226 235 242 245 240 232 232 232 231 228 221 215 214 213 210 207 207 206 206 201 196 195 196 200 197 188 181 174 153
111 141 137 109 104 119 132 164 155 130 120 125 144 153 163 188 213 235 228 221 216 222 228 234 202 179 191 195 192 194 201 209 217 221 224 228 229 232 234 235 234 234 237 238 237 235 234 234 233 234 234 233 233 233 233 234 233 231 229 228 226 226 228 227 223 220 220 220 224 230 238 243 241 238 237 235 235 234 229 223 220 219 217 215 216 216 212 207 205 202 200 202 202 194 188 182 169
153 136 135 121 111 121 121 149 159 148 145 154 177 183 161 189 240 262 243 228 217 222 229 233 224 198 196 199 201 204 212 216 219 223 226 227 226 229 231 232 233 232 234 237 238 237 235 234 234 235 237 237 236 236 236 235 233 233 232 232 231 231 229 227 226 223 221 221 223 227 234 241 240 240 240 237 237 238 237 233 230 227 222 219 221 221 214 211 212 214 211 208 208 203 196 190 182
130 126 124 122 127 129 125 144 153 148 153 151 176 289 209 182 194 259 245 227 214 219 223 225 222 217 215 216 219 224 230 233 233 230 226 223 225 230 231 232 236 235 234 235 237 238 236 235 234 234 236 237 238 239 239 237 236 235 236 235 235 235 230 227 227 227 224 223 223 226 232 238 239 239 242 242 239 240 241 240 240 236 228 223 224 222 216 214 216 221 221 216 213 208 203 198 190
127 123 109 111 124 125 148 142 151 158 125 134 135 338 271 145 174 250 244 226 214 214 215 219 220 222 223 226 230 234 238 240 239 233 229 229 232 235 235 237 241 242 240 239 240 240 239 236 235 233 232 234 237 240 240 240 239 239 239 238 238 237 232 229 229 228 226 224 224 227 232 234 238 239 241 243 239 242 246 245 246 245 236 229 227 224 219 218 220 225 224 219 216 211 210 207 195
130 121 94 51 33 18 209 171 165 174 129 160 82 350 294 186 221 254 255 230 214 207 209 215 220 226 229 234 238 240 244 243 238 238 239 240 242 242 242 245 247 248 249 248 245 244 243 239 237 235 234 235 237 238 239 239 241 242 242 241 241 238 232 231 230 230 229 228 228 229 230 232 235 238 240 242 240 243 249 249 248 249 243 233 230 227 219 216 223 230 227 219 214 212 212 210 200
138 118 98 82 20 329 235 192 170 161 141 180 100 303 278 248 237 260 266 228 208 199 206 213 221 230 234 237 240 241 244 243 243 247 250 249 247 245 245 246 246 248 249 247 246 247 246 243 241 240 239 238 237 237 236 236 238 240 242 243 244 241 235 231 232 232 232 232 233 233 232 233 235 236 238 239 238 241 246 248 249 249 243 233 232 231 218 211 223 232 231 222 213 212 211 208 204
135 81 68 87 84 294 270 183 160 146 187 196 103 190 264 270 263 280 268 219 207 201 206 213 222 230 236 238 240 244 245 246 252 255 255 255 252 250 248 245 243 245 245 244 247 248 247 246 244 242 241 240 238 238 237 237 237 238 241 244 245 244 240 235 232 232 232 232 233 233 234 235 235 236 236 236 238 242 243 245 248 247 242 233 234 234 221 213 222 230 231 225 215 214 213 206 204
66 90 326 344 136 267 309 189 172 162 211 206 114 198 267 281 284 298 215 206 207 211 215 218 226 232 239 243 243 245 248 250 253 254 253 252 251 251 251 248 244 244 244 245 246 246 246 246 245 243 241 240 239 238 238 239 238 238 239 242 245 244 242 239 235 232 231 232 232 230 233 237 236 235 234 233 236 240 242 244 246 245 240 235 236 234 222 215 219 224 228 226 222 218 213 206 204
4 107 225 289 138 215 308 289 199 168 150 224 194 220 270 296 293 306 173 200 208 217 225 227 232 237 239 243 245 246 249 250 249 249 248 248 249 252 254 253 250 247 246 245 244 244 245 246 247 246 243 242 241 240 239 237 238 238 238 239 242 243 242 242 241 237 234 233 232 227 228 232 231 230 231 231 234 239 241 241 241 243 241 236 236 233 223 217 219 222 221 223 227 224 216 209 206
315 54 207 241 167 159 230 292 250 148 118 225 242 231 257 273 278 272 243 226 225 229 237 240 239 240 238 237 239 244 247 249 250 249 248 251 256 258 257 255 252 250 247 244 244 245 246 247 249 250 247 244 243 241 239 237 237 238 238 238 239 241 243 245 246 245 242 238 233 225 223 225 228 230 230 228 233 240 242 241 241 244 243 238 236 231 224 220 220 223 220 218 223 223 219 212 208
201 187 192 263 214 163 200 247 233 142 113 240 230 246 259 269 278 275 266 254 245 243 248 251 250 246 243 237 235 240 244 248 254 256 257 261 263 264 261 254 247 247 247 245 244 244 245 246 247 249 248 245 243 241 238 237 237 237 238 238 239 240 242 244 246 247 247 244 237 228 223 224 227 231 230 232 239 240 237 240 243 244 243 241 240 232 226 224 221 219 219 218 219 216 217 216 209
157 171 156 164 172 247 242 243 255 147 134 243 230 235 255 264 276 278 275 268 251 246 250 251 251 250 246 240 238 240 242 250 259 262 263 264 266 267 264 258 249 244 243 244 244 243 243 243 244 245 245 244 241 239 236 234 234 235 237 238 240 242 242 244 244 245 246 246 243 235 228 226 225 224 228 239 246 241 237 238 240 240 239 242 244 236 231 232 227 220 217 221 222 213 210 213 210
126 118 104 139 139 314 272 258 298 53 131 246 240 243 261 263 266 271 275 278 259 242 243 244 246 247 245 241 241 242 245 253 263 264 262 264 265 265 263 260 254 245 241 239 240 244 245 244 244 244 245 244 241 240 238 236 236 237 238 241 244 247 247 247 246 246 246 246 245 241 235 231 228 224 227 238 241 237 240 241 239 239 238 240 248 243 237 236 230 221 216 219 225 219 211 207 206
93 101 80 34 120 186 245 251 297 354 86 266 283 290 271 261 260 265 271 277 264 244 236 239 244 244 244 243 245 249 252 256 260 259 260 262 262 261 258 256 253 250 246 243 242 244 246 246 244 244 244 244 244 244 242 241 242 243 244 247 250 252 252 251 250 249 249 249 247 246 242 236 234 231 231 236 236 232 236 240 241 242 241 240 245 242 235 234 229 221 219 219 221 221 217 210 206
78 90 93 16 277 186 291 313 313 12 122 269 335 334 279 266 257 259 259 254 257 254 245 245 248 247 248 248 252 256 258 259 258 257 259 260 260 258 255 253 254 255 253 250 247 244 242 243 243 242 241 243 245 246 245 244 245 246 247 248 250 251 253 252 251 250 249 250 250 250 248 242 239 238 235 234 233 233 236 240 244 244 240 238 240 236 229 229 229 224 226 230 225 217 215 214 211
81 94 108 241 266 166 276 296 297 301 172 267 337 325 281 277 272 259 255 248 253 259 257 256 255 254 256 258 260 262 262 263 262 261 260 257 256 254 253 254 255 255 253 251 251 247 244 243 242 242 241 243 245 246 246 245 244 244 245 245 246 248 249 249 247 246 246 247 248 248 247 245 242 240 236 233 234 237 239 242 244 243 239 237 238 235 228 227 229 228 229 234 232 221 212 212 210
331 126 138 202 245 149 191 277 315 326 344 351 1 328 287 289 305 280 271 259 255 260 261 259 257 256 257 260 261 262 263 265 266 265 261 257 255 254 255 257 256 254 254 254 255 254 252 249 247 245 244 244 244 245 246 245 244 243 243 243 244 244 245 245 244 244 243 243 244 244 243 244 242 238 236 234 236 239 240 242 243 243 242 239 235 234 233 233 234 234 233 233 233 227 219 213 206
320 263 176 187 164 131 127 24 23 19 341 320 34 348 290 305 311 278 297 319 278 270 266 261 260 259 256 256 258 260 261 262 262 261 259 258 258 256 256 254 254 255 256 257 257 257 256 254 252 250 249 247 247 246 246 246 245 245 245 245 246 247 248 249 249 249 247 244 243 243 242 243 240 237 233 229 230 233 235 239 239 240 241 238 234 232 232 235 237 238 237 235 233 230 226 217 209
320 255 202 170 125 108 96 66 48 46 270 276 78 111 270 300 293 263 275 284 275 280 281 266 263 263 261 259 261 264 264 261 258 257 255 255 255 254 254 253 254 257 260 259 256 256 255 254 253 252 251 251 250 249 248 248 247 248 248 248 249 251 253 255 256 255 252 248 246 244 243 243 241 236 229 223 224 228 230 233 235 238 239 239 236 232 233 238 241 242 239 236 233 229 226 220 215
227 235 174 126 106 112 115 92 92 216 255 315 4 134 246 286 274 257 255 263 276 282 275 266 260 259 260 264 268 266 260 254 251 249 248 249 250 252 254 255 256 258 260 258 255 255 253 252 252 251 250 250 250 251 250 250 250 251 251 251 252 253 255 257 257 256 253 249 246 244 244 243 240 235 228 224 224 226 227 228 231 234 237 241 239 236 242 247 245 241 234 230 229 227 224 221 219
239 219 137 117 116 123 111 96 94 349 10 314 305 139 240 268 269 280 267 262 278 267 257 261 263 265 267 269 264 252 242 238 234 231 233 238 244 249 252 253 254 254 254 255 254 253 251 250 249 247 248 249 249 250 251 252 253 254 255 255 255 256 257 258 257 255 253 249 246 245 244 243 240 235 230 228 227 227 228 228 230 234 237 240 241 241 248 250 246 238 231 229 230 226 222 221 221
206 161 88 65 69 78 76 96 101 31 4 259 231 172 235 269 261 269 329 261 263 259 258 263 272 277 274 253 228 223 227 229 224 218 222 237 244 247 250 250 251 251 250 252 252 250 248 247 247 247 248 249 250 251 252 253 254 255 256 257 258 259 258 257 256 255 252 249 247 244 243 242 240 237 233 231 228 228 231 233 234 236 237 239 241 242 245 246 245 238 233 236 235 228 223 222 222
125 89 60 41 24 33 42 61 82 48 292 253 212 187 194 276 271 237 198 226 232 242 290 291 290 266 216 195 194 210 222 224 228 226 227 241 242 242 248 247 246 244 244 247 249 249 249 249 250 251 251 252 253 253 253 254 255 257 259 260 261 261 259 258 257 255 253 249 247 246 244 242 240 239 236 234 232 230 232 234 234 233 235 237 237 239 242 241 239 235 233 235 233 229 226 225 225
104 79 78 58 348 12 16 359 50 131 255 266 237 194 172 244 265 243 248 263 226 179 222 282 261 154 161 173 186 203 216 226 234 233 236 243 240 241 242 232 221 220 230 241 247 250 251 251 252 252 253 254 255 256 257 258 259 261 262 263 263 262 261 260 259 259 256 253 249 247 246 242 239 237 236 234 233 231 229 230 231 231 231 232 233 237 240 237 231 231 233 232 230 228 225 224 226
80 98 104 92 318 3 353 299 127 220 244 269 264 169 188 242 255 257 274 284 254 218 221 204 185 167 164 180 203 215 220 230 238 239 244 246 239 234 227 221 221 222 230 241 249 252 252 251 250 250 252 254 257 260 262 263 264 265 265 265 265 264 263 262 263 262 260 256 249 245 244 243 240 238 236 235 233 230 227 228 229 228 227 228 230 233 231 227 226 230 234 233 231 228 225 225 227
134 138 136 139 150 158 249 253 270 265 260 279 314 156 248 280 281 243 249 261 260 275 292 210 181 183 203 235 246 238 236 248 258 252 249 246 238 227 221 229 239 241 243 247 250 252 251 250 248 248 249 251 257 260 261 263 264 265 265 266 267 267 267 267 267 266 264 258 249 243 243 242 241 241 238 236 235 230 225 227 227 227 229 231 230 229 226 223 223 229 234 236 234 230 228 229 228
183 153 136 158 165 168 204 206 210 248 275 291 293 223 203 222 270 239 238 262 272 287 274 213 224 249 259 270 255 243 261 282 273 258 255 251 240 229 234 251 255 253 252 249 249 250 249 249 248 247 247 245 248 251 252 255 257 260 264 269 274 275 275 274 273 272 268 261 252 245 242 240 239 239 236 233 233 228 225 229 232 232 234 236 232 230 230 225 221 225 232 235 236 232 232 234 230
223 135 119 189 192 158 167 197 183 183 300 289 241 234 211 206 264 262 257 269 277 285 270 235 246 254 258 261 247 250 282 291 283 278 276 261 245 244 256 267 265 259 255 250 248 250 250 250 248 242 235 228 228 229 232 241 248 255 260 267 276 280 283 282 279 277 273 265 256 248 244 241 239 238 233 228 226 226 227 233 238 238 236 236 234 233 233 227 221 224 230 233 235 234 235 236 231
195 148 176 207 175 133 135 253 191 100 253 265 206 252 280 313 284 266 251 257 272 286 286 273 261 256 259 257 252 267 289 294 296 296 289 270 255 259 266 270 269 265 260 253 251 253 251 247 239 227 219 215 214 213 216 232 244 251 256 261 267 273 286 294 290 284 278 270 260 249 245 243 241 237 230 225 223 225 228 233 238 240 239 238 238 238 235 228 222 227 235 237 237 236 236 234 229
137 185 207 170 91 94 113 217 340 38 249 272 214 237 271 308 271 290 5 310 293 289 274 268 265 263 263 263 266 277 287 296 299 296 294 287 275 270 269 269 271 271 262 251 251 252 243 230 221 212 210 209 208 207 209 225 241 249 255 260 264 266 273 286 292 290 282 273 263 253 247 244 242 236 229 224 224 225 229 234 237 240 241 242 243 239 233 227 225 230 239 242 239 236 233 229 228
139 184 193 129 122 247 125 167 206 201 241 275 268 250 251 227 230 270 344 307 297 281 258 253 257 256 256 260 267 272 274 282 288 289 294 295 290 284 280 277 277 272 259 247 245 240 226 217 214 208 205 204 204 205 207 222 237 246 255 261 267 269 266 268 278 284 283 276 267 257 250 245 241 235 229 227 226 228 231 233 235 238 241 242 240 232 226 227 231 234 240 243 240 236 231 228 228
51 92 151 137 145 176 175 174 171 169 202 248 275 285 251 231 201 162 222 253 261 259 254 242 244 247 251 258 263 264 267 275 279 282 289 294 292 288 286 288 287 273 258 248 242 232 219 215 215 210 205 203 204 207 212 225 238 249 261 267 272 274 269 264 267 274 278 279 273 262 253 246 239 235 232 229 228 229 229 230 232 235 239 240 236 229 227 232 235 234 237 240 239 234 230 229 229
168 161 189 200 104 124 187 204 146 148 171 213 263 276 261 242 178 174 211 235 241 241 239 237 244 245 246 256 263 267 275 282 285 283 284 287 286 286 291 303 304 288 271 256 242 229 219 219 218 211 206 205 206 211 218 228 241 253 264 269 270 272 268 264 265 270 274 276 275 268 257 247 240 237 234 230 228 229 229 231 233 233 236 240 241 238 236 237 236 234 235 238 237 234 231 229 229
180 182 192 191 171 136 167 247 248 137 178 188 176 266 274 247 168 190 202 213 232 228 217 234 250 250 246 253 265 268 272 281 288 287 284 287 295 308 313 308 305 298 286 268 247 230 223 223 220 212 209 209 211 216 222 230 240 249 257 260 261 265 266 263 264 270 273 273 274 271 262 252 244 240 237 230 228 229 230 233 235 236 238 240 242 245 244 241 239 237 236 235 234 233 234 233 233